Regional Weather Roundup
Issued by NWS

Home | Current Version | Previous Version | Graphics & Text | Print | Product List | Glossary On
Versions: 1 2 3 4 5 6 7 8 9 10 11 12 13 14 15 16 17 18 19 20 21 22 23 24 25 26 27 28 29 30 31 32 33 34 35 36 37 38 39 40 41 42 43 44 45 46 47 48 49 50
000
ASUS43 KDTX 261601
RWRMI
MICHIGAN HOURLY REGIONAL WEATHER ROUNDUP
NATIONAL WEATHER SERVICE DETROIT/PONTIAC MI
1200 PM EDT THU MAR 26 2015

NOTE: "FAIR" INDICATES FEW OR NO CLOUDS BELOW 12,000 FEET WITH NO
SIGNIFICANT WEATHER AND/OR OBSTRUCTION TO VISIBILITY.

MIZ047>049-052>055-059>063-066>070-074>076-081>083-261700-
SOUTHEAST LOWER MICHIGAN

CITY           SKY/WX    TMP DP  RH WIND       PRES   REMARKS
ADRIAN         CLOUDY    39  30  70 N12       29.89S WCI  32
ALMA           CLOUDY    39  28  64 W12       29.88F WCI  32
ANN ARBOR      CLOUDY    40  29  64 NW8       29.87F WCI  34
BAD AXE        CLOUDY    39  29  69 NW12      29.84S WCI  32
CARO           CLOUDY    40  30  65 W12       29.84F WCI  33
DETROIT CITY   CLOUDY    42  31  64 W6        29.87F
DETROIT        CLOUDY    42  33  70 NW8       29.87F
FLINT          CLOUDY    41  27  57 W14       29.86F
GROSSE ILE     CLOUDY    39  37  93 NW3       29.86F FOG
HILLSDALE      CLOUDY    38  28  67 NW12      29.88S WCI  31
HOWELL         CLOUDY    39  28  65 NW8       29.86S WCI  33

CITY           SKY/WX    TMP DP  RH WIND       PRES   REMARKS
JACKSON        CLOUDY    38  26  62 NW10      29.88S WCI  31
LAMBERTVILLE   CLOUDY    37  34  87 NW3       29.89S FOG
LANSING        CLOUDY    39  25  57 NW10G18   29.89F WCI  32
LAPEER         CLOUDY    39  28  63 W9        29.84F WCI  33
MASON          CLOUDY    38  26  61 W10G16    29.88S WCI  31
MONROE         CLOUDY    39  37  93 W3        29.86F FOG
MT. CLEMENS    CLOUDY    40  30  67 NW6       29.83F
PONTIAC        CLOUDY    39  27  62 NW9       29.84F WCI  33
PORT HOPE        N/A     39  29  67 W9G17     29.81F WCI  33
PORT HURON     CLOUDY    39  32  75 W7        29.85F WCI  34
TRI CITIES     CLOUDY    40  25  55 NW14      29.86F WCI  32
TROY           CLOUDY    41  31  67 W6        29.87F
SAGINAW HB     CLOUDY    39  27  60 W10G18    29.85F WCI  32
$$
MIZ043>046-050>051-056>058-064>065-071>073-077>080-261700-
SOUTHWEST LOWER MICHIGAN

CITY           SKY/WX    TMP DP  RH WIND       PRES   REMARKS
BATTLE CREEK   CLOUDY    39  25  57 NW17      29.91R WCI  30
BENTON HARBOR  CLOUDY    37  26  64 NW10      29.96R WCI  30
BIG RAPIDS     CLOUDY    37  24  60 W13       29.86S WCI  29
COLDWATER      CLOUDY    38  26  63 NW12      29.90S WCI  30
FREMONT        CLOUDY    38  21  50 NW14      29.90S WCI  29
HOLLAND        CLOUDY    38  27  64 W15G21    29.94R WCI  29
GRAND RAPIDS   CLOUDY    39  24  55 W13       29.90S WCI  31
IONIA          CLOUDY    39  26  58 W10       29.88S WCI  32
KALAMAZOO      CLOUDY    39  24  55 NW15      29.92R WCI  31
LUDINGTON      CLOUDY    37  28  68 NW9       29.92R WCI  31
MARSHALL       CLOUDY    38  26  59 NW12      29.89S WCI  31
MOUNT PLEASANT CLOUDY    38  26  62 W6        29.86S WCI  34
MUSKEGON       CLOUDY    39  26  59 NW12G17   29.93R WCI  32
SOUTH HAVEN    CLOUDY    38  27  63 NW9       29.95S WCI  32
$$
MIZ016>042-261700-
NORTHERN LOWER MICHIGAN

CITY           SKY/WX    TMP DP  RH WIND       PRES   REMARKS
ALPENA         PTSUNNY   39  26  59 W10       29.81F WCI  32
BEAVER ISLAND  LGT SNOW  30  28  93 W9G16     29.85S WCI  22
BELLAIRE       FLURRIES  34  26  70 W6G20     29.86F WCI  29
CADILLAC       CLOUDY    34  25  69 W10G17    29.84S WCI  26
CHARLEVOIX     LGT SNOW  33  30  86 W15G22    29.88S WCI  23
FRANKFORT      CLOUDY    36  23  59 N10G21    29.89R WCI  29
GAYLORD        FLURRIES  32  26  78 W10       29.80F WCI  24
GRAYLING       FLURRIES  33  26  77 W9        29.83F WCI  25
HARBOR SPRINGS LGT SNOW  32  30  92 SW9       29.83S VSB 1   WCI  24
HOUGHTON LAKE  CLOUDY    34  24  67 W10       29.84S WCI  26
MANISTEE       CLOUDY    36  25  64 NW14      29.90S WCI  27
OSCODA         CLOUDY    39  28  63 W12       29.82F WCI  32
PELLSTON       LGT SNOW  34  30  85 W10       29.82F FOG     WCI  26
ROGERS CITY    CLOUDY    37  31  79 W9        29.81F WCI  30
TRAVERSE CITY  FLURRIES  35  26  69 NW14G20   29.86S WCI  26
$$
MIZ007>008-015-261700-
EASTERN UPPER MICHIGAN

CITY           SKY/WX    TMP DP  RH WIND       PRES   REMARKS
KINROSS        CLOUDY    36  34  93 W13       29.78F WCI  27
MACKINAC ISLAN LGT SNOW  32  32  99 W9        29.80S VSB 1   WCI  24
NEWBERRY       LGT SNOW  30  27  90 NW7G16    29.82R WCI  23
S. S. MARIE    LGT SNOW  33  29  85 NW8       29.78S FOG     WCI  26
$$
MIZ004>006-011>014-085-261700-
CENTRAL UPPER MICHIGAN

CITY           SKY/WX    TMP DP  RH WIND       PRES   REMARKS
MANISTIQUE     CLOUDY    27  21  79 NW17G28   29.88R WCI  14
ESCANABA       CLOUDY    28  16  59 N13G21    29.93R WCI  18
MENOMINEE      CLOUDY    32  18  55 NW12G21   29.93R WCI  23
SAWYER-GWINN   FLURRIES  21  14  73 N21       29.92R WCI   6
$$
MIZ001>003-009>011-084-261700-
WESTERN UPPER MICHIGAN

CITY           SKY/WX    TMP DP  RH WIND       PRES   REMARKS
IRON MOUNTAIN  CLOUDY    25  16  68 N14       29.93R WCI  13
HOUGHTON       LGT SNOW  16   9  74 N22G31    30.00S WCI  -2
COPPER HARBOR    N/A     18  12  77 NE18G28   30.01R WCI   2
IRONWOOD       CLOUDY    19  16  86 N12       30.02S WCI   7
$$

ABBREVIATIONS USED IN REMARKS
   TC - TEMPERATURE IN CELSIUS
  WCI - WIND CHILL INDEX
   HX - HEAT INDEX
  VSB - VISIBILITY



USA.gov is the U.S. government's official web portal to all federal, state and local government web resources and services.